Tracking 19242 objects as of 18-Sep-2018
HD Live streaming from Space Station
objects crossing your sky now

FENGYUN 1C DEB

Track FENGYUN 1C DEB now!
10-day predictions


NORAD ID: 31627
Int'l Code: 1999-025CAH
Perigee: 780.0 km
Apogee: 866.2 km
Inclination: 98.8 °
Period: 101.2 minutes
Semi major axis: 7194 km
RCS: 0.013 m2 (small)
Launch date: May 10, 1999
Source: People's Republic of China (PRC)
Launch site: Taiyaun Space Center, China (TSC)

Note: This is SATELLITE DEBRIS
aabbcc
Your satellite tracking list
Your tracking list is empty




NASA's NSSDC Master Catalog

Two Line Element Set (TLE):
1 31627U 99025CAH 18259.36386082 +.00000445 +00000-0 +21452-3 0  9995
2 31627 098.7733 302.3272 0059892 303.6567 055.8906 14.22774790270724
Source of the keplerian elements: AFSPC